Weather History for Pinedale, WY

Change the Weather History Date:

Wednesday, December 19, 2012

  Actual Average (KBPI) Record (KBPI)
Temperature  
Mean Temperature 4 °F 12 °F  
Max Temperature 14 °F 26 °F 42 °F (1980)
Min Temperature -5 °F -2 °F -28 °F (1992)
Degree Days  
Heating Degree Days 60 53  
Month to date heating degree days 979  
Since 1 July heating degree days 3794  
Cooling Degree Days 0 0  
Month to date cooling degree days 0  
Year to date cooling degree days 35  
Moisture  
Dew Point -6 °F    
Average Humidity 69    
Maximum Humidity 78    
Minimum Humidity 53    
Precipitation  
Precipitation 0.00 in 0.01 in 0.17 in (2013)
Month to date precipitation 0.17  
Year to date precipitation 6.35  
Sea Level Pressure  
Sea Level Pressure 29.95 in    
Wind  
Wind Speed 11 mph (WNW)    
Max Wind Speed 18 mph    
Max Gust Speed 22 mph    
Visibility 10 miles    
Events      
T = Trace of Precipitation, MM = Missing Value Source: NWS Daily Summary

Daily Weather History Graph

Daily Weather History Graph

Search for Another Location

Airport:

Trip Planner

Search our weather history database for the weather conditions in past years. The results will help you decide how hot, cold, wet, or windy it might be!

Date:

Astronomy

Dec. 19, 2012 Rise Set
Actual Time 7:45 AM MST 4:47 PM MST
Civil Twilight 7:13 AM MST 5:19 PM MST
Nautical Twilight 6:37 AM MST 5:55 PM MST
Astronomical Twilight 6:03 AM MST 6:30 PM MST
Moon 11:47 AM MST (12/19) No Moon Set
Length of Visible Light 10h 06m
Length of Day
9h 01m
Waxing Crescent, 45% of the Moon is Illuminated
Dec 19
Waxing Crescent
Dec 19
First Quarter
Dec 28
Full
Jan 4
Last Quarter
Jan 11
New

Hourly Weather History & Observations

Time (MST) Temp. Windchill Dew Point Humidity Pressure Visibility Wind Dir Wind Speed Gust Speed Precip Events Conditions
12:15 AM 1.4 °F -11.3 °F -5.8 °F 72% 29.73 in 10.0 mi NNW 6.9 mph - N/A   Clear
12:35 AM -0.4 °F -14.7 °F -7.6 °F 72% 29.73 in 10.0 mi WNW 8.1 mph - N/A   Clear
12:55 AM -0.4 °F -13.4 °F -7.6 °F 72% 29.72 in 10.0 mi NW 6.9 mph - N/A   Clear
1:15 AM -0.4 °F -17.6 °F -5.8 °F 78% 29.72 in 10.0 mi WNW 11.5 mph - N/A   Clear
1:35 AM -0.4 °F -15.7 °F -7.6 °F 72% 29.74 in 10.0 mi WNW 9.2 mph - N/A   Clear
1:55 AM -0.4 °F -14.7 °F -7.6 °F 72% 29.73 in 10.0 mi NW 8.1 mph - N/A   Clear
2:15 AM -0.4 °F -17.6 °F -7.6 °F 72% 29.73 in 10.0 mi WNW 11.5 mph - N/A   Clear
2:35 AM -2.2 °F -18.0 °F -9.4 °F 71% 29.73 in 10.0 mi NW 9.2 mph - N/A   Clear
2:55 AM -2.2 °F -15.6 °F -9.4 °F 71% 29.74 in 10.0 mi WNW 6.9 mph - N/A   Clear
3:15 AM -4.0 °F -16.3 °F -9.4 °F 78% 29.74 in 10.0 mi WNW 5.8 mph - N/A   Clear
3:35 AM -2.2 °F -15.6 °F -9.4 °F 71% 29.74 in 10.0 mi West 6.9 mph - N/A   Clear
3:55 AM -2.2 °F -18.9 °F -9.4 °F 71% 29.74 in 10.0 mi West 10.4 mph - N/A   Clear
4:15 AM -2.2 °F -22.2 °F -7.6 °F 78% 29.75 in 10.0 mi WNW 15.0 mph - N/A   Clear
4:35 AM -0.4 °F -21.7 °F -7.6 °F 72% 29.75 in 10.0 mi WNW 18.4 mph - N/A   Clear
4:55 AM -0.4 °F -20.5 °F -7.6 °F 72% 29.76 in 10.0 mi WNW 16.1 mph - N/A   Clear
5:15 AM -2.2 °F -20.7 °F -7.6 °F 78% 29.77 in 10.0 mi NW 12.7 mph - N/A   Scattered Clouds
5:35 AM -4.0 °F -24.5 °F -9.4 °F 78% 29.77 in 10.0 mi WNW 15.0 mph - N/A   Clear
5:55 AM -4.0 °F -19.0 °F -9.4 °F 78% 29.79 in 10.0 mi NW 8.1 mph - N/A   Clear
6:15 AM -2.2 °F -19.9 °F -9.4 °F 71% 29.80 in 10.0 mi WNW 11.5 mph - N/A   Clear
6:35 AM -2.2 °F -22.2 °F -9.4 °F 71% 29.81 in 10.0 mi WNW 15.0 mph - N/A   Clear
6:55 AM -2.2 °F -20.7 °F -9.4 °F 71% 29.83 in 10.0 mi WNW 12.7 mph - N/A   Clear
7:15 AM -4.0 °F - -11.2 °F 71% 29.84 in 10.0 mi Calm Calm - N/A   Clear
7:35 AM -5.8 °F -21.2 °F -11.2 °F 77% 29.85 in 10.0 mi West 8.1 mph - N/A   Clear
7:55 AM -4.0 °F -22.1 °F -9.4 °F 78% 29.85 in 10.0 mi WNW 11.5 mph - N/A   Clear
8:15 AM -4.0 °F -23.0 °F -9.4 °F 78% 29.87 in 10.0 mi WNW 12.7 mph 21.9 mph N/A   Clear
8:35 AM -0.4 °F -19.9 °F -9.4 °F 66% 29.88 in 10.0 mi WNW 15.0 mph - N/A   Clear
8:55 AM -0.4 °F -19.9 °F -7.6 °F 72% 29.89 in 10.0 mi WNW 15.0 mph - N/A   Clear
9:15 AM 1.4 °F -16.1 °F -7.6 °F 66% 29.90 in 10.0 mi WNW 12.7 mph - N/A   Clear
9:35 AM 1.4 °F -16.9 °F -7.6 °F 66% 29.92 in 10.0 mi WNW 13.8 mph - N/A   Clear
9:55 AM 3.2 °F -14.6 °F -5.8 °F 66% 29.93 in 10.0 mi NW 13.8 mph - N/A   Clear
10:15 AM 5.0 °F -13.0 °F -5.8 °F 61% 29.93 in 10.0 mi NW 15.0 mph - N/A   Clear
10:35 AM 6.8 °F -7.8 °F -4.0 °F 61% 29.95 in 10.0 mi WNW 10.4 mph - N/A   Clear
10:55 AM 8.6 °F -8.9 °F -2.2 °F 62% 29.95 in 10.0 mi WNW 16.1 mph - N/A   Clear
11:15 AM 10.4 °F -5.4 °F -0.4 °F 62% 29.95 in 10.0 mi NW 13.8 mph - N/A   Clear
11:35 AM 12.2 °F -3.7 °F -0.4 °F 57% 29.95 in 10.0 mi WNW 15.0 mph - N/A   Clear
11:55 AM 12.2 °F -4.3 °F -0.4 °F 57% 29.97 in 10.0 mi WNW 16.1 mph - N/A   Clear
12:15 PM 12.2 °F -3.1 °F -0.4 °F 57% 29.97 in 10.0 mi WNW 13.8 mph 21.9 mph N/A   Clear
12:35 PM 12.2 °F -4.8 °F 1.4 °F 62% 29.97 in 10.0 mi WNW 17.3 mph - N/A   Clear
12:55 PM 12.2 °F -4.8 °F 1.4 °F 62% 29.97 in 10.0 mi WNW 17.3 mph - N/A   Clear
1:15 PM 12.2 °F -3.1 °F 1.4 °F 62% 29.98 in 10.0 mi NW 13.8 mph - N/A   Clear
1:35 PM 14.0 °F -2.5 °F 1.4 °F 57% 29.98 in 10.0 mi WNW 17.3 mph - N/A   Clear
1:55 PM 14.0 °F -2.0 °F 1.4 °F 57% 30.00 in 10.0 mi NW 16.1 mph - N/A   Clear
2:15 PM 14.0 °F -2.0 °F 1.4 °F 57% 30.01 in 10.0 mi NW 16.1 mph - N/A   Clear
2:35 PM 14.0 °F -2.0 °F -0.4 °F 53% 30.01 in 10.0 mi NW 16.1 mph - N/A   Clear
2:55 PM 12.2 °F -3.1 °F -0.4 °F 57% 30.01 in 10.0 mi NW 13.8 mph - N/A   Clear
3:15 PM 12.2 °F -2.5 °F -0.4 °F 57% 30.03 in 10.0 mi NW 12.7 mph - N/A   Clear
3:35 PM 12.2 °F -2.5 °F -0.4 °F 57% 30.03 in 10.0 mi NW 12.7 mph - N/A   Clear
3:55 PM 10.4 °F -4.1 °F -0.4 °F 62% 30.04 in 10.0 mi NW 11.5 mph - N/A   Clear
4:15 PM 10.4 °F -1.5 °F -0.4 °F 62% 30.05 in 10.0 mi WNW 8.1 mph - N/A   Clear
4:35 PM 8.6 °F -3.7 °F -4.0 °F 57% 30.06 in 10.0 mi West 8.1 mph - N/A   Clear
4:55 PM 3.2 °F -10.3 °F -4.0 °F 72% 30.07 in 10.0 mi West 8.1 mph - N/A   Clear
5:15 PM 1.4 °F -12.5 °F -5.8 °F 72% 30.08 in 10.0 mi WNW 8.1 mph - N/A   Clear
5:35 PM 1.4 °F -15.3 °F -5.8 °F 72% 30.09 in 10.0 mi WNW 11.5 mph - N/A   Clear
5:55 PM 3.2 °F -13.9 °F -5.8 °F 66% 30.09 in 10.0 mi WNW 12.7 mph - N/A   Clear
6:15 PM -0.4 °F -18.4 °F -7.6 °F 72% 30.11 in 10.0 mi WNW 12.7 mph - N/A   Clear
6:35 PM -0.4 °F -18.4 °F -7.6 °F 72% 30.11 in 10.0 mi WNW 12.7 mph - N/A   Clear
6:55 PM -2.2 °F -18.9 °F -9.4 °F 71% 30.12 in 10.0 mi NW 10.4 mph - N/A   Clear
7:15 PM -4.0 °F -21.2 °F -9.4 °F 78% 30.13 in 10.0 mi West 10.4 mph - N/A   Clear
7:35 PM -0.4 °F -17.6 °F -7.6 °F 72% 30.13 in 10.0 mi WNW 11.5 mph - N/A   Clear
7:55 PM -0.4 °F -19.2 °F -7.6 °F 72% 30.13 in 10.0 mi NW 13.8 mph - N/A   Clear
8:15 PM 3.2 °F -15.3 °F -4.0 °F 72% 30.13 in 10.0 mi WNW 15.0 mph - N/A   Clear
8:35 PM 1.4 °F -18.8 °F -4.0 °F 78% 30.14 in 10.0 mi WNW 17.3 mph - N/A   Clear
8:55 PM 1.4 °F -15.3 °F -5.8 °F 72% 30.15 in 10.0 mi WNW 11.5 mph - N/A   Clear
9:15 PM 1.4 °F -16.9 °F -5.8 °F 72% 30.16 in 10.0 mi West 13.8 mph - N/A   Clear
9:35 PM 1.4 °F -13.5 °F -5.8 °F 72% 30.17 in 10.0 mi WNW 9.2 mph - N/A   Clear
9:55 PM -2.2 °F -15.6 °F -7.6 °F 78% 30.18 in 10.0 mi North 6.9 mph - N/A   Clear
10:15 PM -0.4 °F -10.4 °F -7.6 °F 72% 30.18 in 10.0 mi North 4.6 mph - N/A   Clear
10:35 PM -2.2 °F - -7.6 °F 78% 30.19 in 10.0 mi Calm Calm - N/A   Clear
11:15 PM -2.2 °F -10.4 °F -7.6 °F 78% 30.21 in 10.0 mi NNW 3.5 mph - N/A   Clear
11:35 PM -4.0 °F -14.6 °F -9.4 °F 78% 30.21 in 10.0 mi WNW 4.6 mph - N/A   Clear
11:55 PM -4.0 °F -20.2 °F -9.4 °F 78% 30.21 in 10.0 mi NNW 9.2 mph - N/A   Clear